| time (UTC) | temp F | wind direction | speed MPH | gust MPH | rain 1hr in | rain 24hr in | rain mn in | humidity % | barometer mb |
| 20260901071818 | 78 | 81 | 0.0 | 0.0 | 0.00 | 0.24 | 0.00 | 69 | 1017.9 |
| 20260901071503 | 77 | 81 | 0.0 | 0.0 | 0.00 | 0.24 | 0.00 | 72 | 1014.4 |
| 20260901071329 | 78 | 81 | 0.0 | 0.0 | 0.00 | 0.24 | 0.00 | 68 | 1018.0 |
| 20260901070814 | 78 | 81 | 0.0 | 2.0 | 0.00 | 0.24 | 0.00 | 67 | 1017.9 |
| 20260901070324 | 79 | 81 | 0.0 | 2.0 | 0.00 | 0.24 | 0.00 | 67 | 1017.9 |
| 20260901070003 | 78 | 81 | 0.0 | 2.0 | 0.00 | 0.24 | 0.00 | 70 | 1014.4 |
| 20260901065828 | 79 | 84 | 1.0 | 2.0 | 0.00 | 0.24 | 0.24 | 67 | 1017.8 |
| 20260901065317 | 78 | 84 | 1.0 | 1.0 | 0.00 | 0.24 | 0.24 | 67 | 1017.8 |
| 20260901064825 | 78 | 84 | 1.0 | 2.0 | 0.00 | 0.24 | 0.24 | 67 | 1017.7 |
| 20260901064506 | 78 | 82 | 0.0 | 2.0 | 0.00 | 0.24 | 0.24 | 71 | 1014.3 |
| 20260901064315 | 78 | 82 | 0.0 | 2.0 | 0.00 | 0.24 | 0.24 | 68 | 1017.7 |
| 20260901063823 | 78 | 82 | 0.0 | 1.0 | 0.00 | 0.24 | 0.24 | 68 | 1017.7 |
| 20260901063318 | 78 | 82 | 0.0 | 1.0 | 0.00 | 0.24 | 0.24 | 67 | 1017.7 |
| 20260901063022 | 78 | 82 | 0.0 | 0.0 | 0.00 | 0.24 | 0.24 | 70 | 1014.3 |
| 20260901062826 | 79 | 82 | 0.0 | 1.0 | 0.00 | 0.24 | 0.24 | 66 | 1017.7 |
| 20260901062317 | 79 | 82 | 0.0 | 1.0 | 0.00 | 0.24 | 0.24 | 66 | 1017.7 |
| 20260901061823 | 79 | 82 | 1.0 | 2.0 | 0.00 | 0.24 | 0.24 | 65 | 1017.7 |
| 20260901061520 | 79 | 90 | 0.0 | 2.0 | 0.00 | 0.24 | 0.24 | 68 | 1014.3 |
| 20260901061314 | 79 | 90 | 0.0 | 2.0 | 0.00 | 0.24 | 0.24 | 65 | 1017.7 |
| 20260901060821 | 80 | 85 | 1.0 | 3.0 | 0.00 | 0.24 | 0.24 | 64 | 1017.7 |
| 20260901060331 | 80 | 81 | 1.0 | 3.0 | 0.00 | 0.24 | 0.24 | 64 | 1017.7 |
| 20260901060005 | 79 | 75 | 2.0 | 3.0 | 0.00 | 0.24 | 0.24 | 67 | 1014.2 |
| 20260901055818 | 80 | 93 | 1.0 | 3.0 | 0.00 | 0.24 | 0.24 | 63 | 1017.7 |
| 20260901055349 | 80 | 85 | 2.0 | 4.0 | 0.00 | 0.24 | 0.24 | 63 | 1017.7 |
| 20260901054815 | 80 | 112 | 1.0 | 4.0 | 0.00 | 0.24 | 0.24 | 62 | 1017.7 |
| 20260901054503 | 80 | 101 | 1.0 | 2.0 | 0.00 | 0.24 | 0.24 | 66 | 1014.3 |
| 20260901054346 | 80 | 79 | 1.0 | 2.0 | 0.00 | 0.24 | 0.24 | 62 | 1017.7 |
| 20260901053817 | 81 | 97 | 1.0 | 2.0 | 0.00 | 0.24 | 0.24 | 61 | 1017.7 |
| 20260901053328 | 81 | 80 | 1.0 | 2.0 | 0.00 | 0.24 | 0.24 | 60 | 1017.6 |
| 20260901053007 | 80 | 92 | 1.0 | 2.0 | 0.00 | 0.24 | 0.24 | 63 | 1014.2 |
| 20260901052816 | 81 | 77 | 1.0 | 2.0 | 0.00 | 0.24 | 0.24 | 60 | 1017.6 |
| 20260901052347 | 81 | 90 | 1.0 | 2.0 | 0.00 | 0.24 | 0.24 | 58 | 1017.6 |
| 20260901051814 | 81 | 94 | 0.0 | 2.0 | 0.00 | 0.24 | 0.24 | 58 | 1017.6 |
| 20260901051518 | 81 | 94 | 0.0 | 4.0 | 0.00 | 0.24 | 0.24 | 61 | 1014.3 |
| 20260901051323 | 82 | 94 | 0.0 | 4.0 | 0.00 | 0.24 | 0.24 | 58 | 1017.7 |
| 20260901050829 | 82 | 95 | 1.0 | 4.0 | 0.00 | 0.24 | 0.24 | 58 | 1017.7 |
| 20260901050341 | 82 | 111 | 1.0 | 2.0 | 0.00 | 0.24 | 0.24 | 57 | 1017.7 |
| 20260901050023 | 81 | 113 | 0.0 | 3.0 | 0.00 | 0.24 | 0.24 | 60 | 1014.1 |
| 20260901045828 | 82 | 115 | 0.0 | 3.0 | 0.00 | 0.24 | 0.24 | 57 | 1017.6 |
| 20260901045319 | 82 | 98 | 1.0 | 3.0 | 0.00 | 0.24 | 0.24 | 56 | 1017.6 |
| 20260901044828 | 82 | 105 | 1.0 | 2.0 | 0.00 | 0.24 | 0.24 | 55 | 1017.7 |
| 20260901044506 | 82 | 105 | 0.0 | 2.0 | 0.00 | 0.24 | 0.24 | 58 | 1014.1 |
| 20260901044316 | 82 | 105 | 1.0 | 2.0 | 0.00 | 0.24 | 0.24 | 55 | 1017.6 |
| 20260901043821 | 83 | 107 | 1.0 | 3.0 | 0.00 | 0.24 | 0.24 | 54 | 1017.7 |
| 20260901043350 | 82 | 100 | 1.0 | 3.0 | 0.00 | 0.24 | 0.24 | 54 | 1017.8 |
| 20260901043008 | 82 | 89 | 0.0 | 2.0 | 0.00 | 0.24 | 0.24 | 57 | 1014.2 |
| 20260901042814 | 83 | 101 | 0.0 | 2.0 | 0.00 | 0.24 | 0.24 | 53 | 1017.7 |
| 20260901042343 | 83 | 103 | 0.0 | 3.0 | 0.00 | 0.24 | 0.24 | 52 | 1017.7 |
| 20260901041827 | 83 | 119 | 0.0 | 3.0 | 0.00 | 0.24 | 0.24 | 51 | 1017.4 |
| 20260901041513 | 83 | 115 | 1.0 | 2.0 | 0.00 | 0.24 | 0.24 | 55 | 1014.0 |
| 20260901041335 | 83 | 137 | 0.0 | 2.0 | 0.00 | 0.24 | 0.24 | 52 | 1017.4 |
| 20260901040819 | 83 | 140 | 0.0 | 2.0 | 0.00 | 0.24 | 0.24 | 51 | 1017.3 |
| 20260901040348 | 83 | 141 | 0.0 | 2.0 | 0.00 | 0.24 | 0.24 | 51 | 1017.4 |
| 20260901040021 | 83 | 141 | 0.0 | 2.0 | 0.00 | 0.24 | 0.24 | 54 | 1014.0 |
| 20260901035814 | 84 | 141 | 0.0 | 2.0 | 0.00 | 0.24 | 0.24 | 50 | 1017.4 |
| 20260901035346 | 83 | 128 | 0.0 | 2.0 | 0.00 | 0.24 | 0.24 | 51 | 1017.5 |
| 20260901034833 | 84 | 128 | 0.0 | 2.0 | 0.00 | 0.24 | 0.24 | 50 | 1017.4 |
| 20260901034504 | 83 | 128 | 0.0 | 2.0 | 0.00 | 0.24 | 0.24 | 53 | 1014.0 |
| 20260901034324 | 84 | 129 | 0.0 | 2.0 | 0.00 | 0.24 | 0.24 | 49 | 1017.4 |
| 20260901033817 | 84 | 129 | 0.0 | 2.0 | 0.00 | 0.24 | 0.24 | 49 | 1017.4 |
| 20260901033329 | 84 | 130 | 0.0 | 2.0 | 0.00 | 0.24 | 0.24 | 48 | 1017.3 |
| 20260901033006 | 84 | 133 | 0.0 | 1.0 | 0.00 | 0.24 | 0.24 | 51 | 1013.8 |
| 20260901032816 | 84 | 119 | 0.0 | 1.0 | 0.00 | 0.24 | 0.24 | 47 | 1017.2 |
| 20260901032327 | 84 | 135 | 1.0 | 2.0 | 0.00 | 0.24 | 0.24 | 47 | 1017.1 |
| 20260901031854 | 84 | 144 | 0.0 | 2.0 | 0.00 | 0.24 | 0.24 | 47 | 1017.1 |
| 20260901031512 | 84 | 110 | 1.0 | 2.0 | 0.00 | 0.24 | 0.24 | 51 | 1013.7 |
| 20260901031325 | 84 | 125 | 0.0 | 2.0 | 0.00 | 0.24 | 0.24 | 48 | 1017.0 |
| 20260901030831 | 84 | 142 | 0.0 | 2.0 | 0.00 | 0.24 | 0.24 | 50 | 1017.0 |
| 20260901030324 | 84 | 203 | 0.0 | 2.0 | 0.00 | 0.24 | 0.24 | 50 | 1016.9 |
| 20260901030016 | 84 | 207 | 0.0 | 2.0 | 0.00 | 0.24 | 0.24 | 54 | 1013.5 |
| 20260901025830 | 84 | 245 | 0.0 | 2.0 | 0.00 | 0.24 | 0.24 | 50 | 1016.9 |
| 20260901025321 | 84 | 245 | 0.0 | 0.0 | 0.00 | 0.24 | 0.24 | 49 | 1016.8 |
| 20260901024828 | 84 | 245 | 0.0 | 0.0 | 0.00 | 0.24 | 0.24 | 49 | 1016.6 |
| 20260901024529 | 84 | 245 | 0.0 | 0.0 | 0.00 | 0.24 | 0.24 | 52 | 1013.2 |
| 20260901024325 | 84 | 245 | 0.0 | 0.0 | 0.00 | 0.24 | 0.24 | 48 | 1016.5 |
| 20260901023853 | 85 | 245 | 0.0 | 0.0 | 0.00 | 0.24 | 0.24 | 49 | 1016.5 |
| 20260901023342 | 85 | 245 | 0.0 | 2.0 | 0.00 | 0.24 | 0.24 | 48 | 1016.5 |
| 20260901023004 | 84 | 245 | 0.0 | 2.0 | 0.00 | 0.24 | 0.24 | 51 | 1013.1 |
| 20260901022828 | 85 | 286 | 0.0 | 2.0 | 0.00 | 0.24 | 0.24 | 48 | 1016.6 |
| 20260901022319 | 85 | 294 | 0.0 | 2.0 | 0.00 | 0.24 | 0.24 | 47 | 1016.5 |
| 20260901021827 | 85 | 294 | 0.0 | 2.0 | 0.00 | 0.24 | 0.24 | 47 | 1016.4 |
| 20260901021513 | 85 | 294 | 0.0 | 2.0 | 0.00 | 0.24 | 0.24 | 50 | 1012.8 |
| 20260901021339 | 85 | 294 | 0.0 | 0.0 | 0.00 | 0.24 | 0.24 | 46 | 1016.3 |
| 20260901020846 | 86 | 294 | 0.0 | 2.0 | 0.00 | 0.24 | 0.24 | 46 | 1016.2 |
| 20260901020316 | 86 | 294 | 0.0 | 2.0 | 0.00 | 0.24 | 0.24 | 45 | 1016.1 |
| 20260901020013 | 85 | 294 | 0.0 | 2.0 | 0.00 | 0.24 | 0.24 | 48 | 1012.6 |
| 20260901015844 | 86 | 294 | 0.0 | 2.0 | 0.00 | 0.24 | 0.24 | 45 | 1016.1 |
| 20260901015315 | 86 | 294 | 0.0 | 2.0 | 0.00 | 0.24 | 0.24 | 45 | 1016.1 |
| 20260901014823 | 86 | 290 | 1.0 | 2.0 | 0.00 | 0.24 | 0.24 | 44 | 1016.1 |
| 20260901014520 | 86 | 306 | 0.0 | 2.0 | 0.00 | 0.24 | 0.24 | 48 | 1012.5 |
| 20260901014318 | 87 | 310 | 1.0 | 2.0 | 0.00 | 0.24 | 0.24 | 44 | 1015.9 |
| 20260901013823 | 87 | 290 | 1.0 | 2.0 | 0.00 | 0.24 | 0.24 | 44 | 1016.0 |
| 20260901013313 | 87 | 307 | 1.0 | 2.0 | 0.00 | 0.24 | 0.24 | 43 | 1015.9 |
| 20260901013026 | 87 | 278 | 1.0 | 2.0 | 0.00 | 0.24 | 0.24 | 46 | 1012.3 |
| 20260901012820 | 87 | 246 | 0.0 | 2.0 | 0.00 | 0.24 | 0.24 | 42 | 1015.8 |
| 20260901012330 | 87 | 259 | 0.0 | 2.0 | 0.00 | 0.24 | 0.24 | 42 | 1015.9 |
| 20260901011817 | 88 | 259 | 1.0 | 2.0 | 0.00 | 0.24 | 0.24 | 42 | 1016.0 |
| 20260901011504 | 87 | 261 | 1.0 | 3.0 | 0.00 | 0.24 | 0.24 | 45 | 1012.5 |
| 20260901011348 | 88 | 261 | 1.0 | 3.0 | 0.00 | 0.24 | 0.24 | 41 | 1016.0 |
| 20260901010814 | 89 | 247 | 1.0 | 3.0 | 0.00 | 0.24 | 0.24 | 40 | 1016.0 |
| 20260901010326 | 89 | 259 | 1.0 | 3.0 | 0.00 | 0.24 | 0.24 | 41 | 1015.9 |
| 20260901010013 | 88 | 325 | 1.0 | 3.0 | 0.00 | 0.24 | 0.24 | 44 | 1012.6 |
| 20260901005833 | 88 | 283 | 1.0 | 3.0 | 0.00 | 0.24 | 0.24 | 41 | 1016.0 |
| 20260901005322 | 88 | 271 | 1.0 | 2.0 | 0.00 | 0.24 | 0.24 | 40 | 1016.1 |
| 20260901004825 | 89 | 355 | 1.0 | 2.0 | 0.00 | 0.24 | 0.24 | 40 | 1016.1 |
| 20260901004532 | 89 | 315 | 1.0 | 4.0 | 0.00 | 0.24 | 0.24 | 42 | 1012.7 |
| 20260901004316 | 89 | 319 | 2.0 | 4.0 | 0.00 | 0.24 | 0.24 | 39 | 1016.2 |
| 20260901003827 | 89 | 344 | 2.0 | 4.0 | 0.00 | 0.24 | 0.24 | 40 | 1016.3 |
| 20260901003318 | 89 | 329 | 1.0 | 3.0 | 0.00 | 0.24 | 0.24 | 40 | 1016.3 |
| 20260901003025 | 88 | 283 | 1.0 | 2.0 | 0.00 | 0.24 | 0.24 | 44 | 1012.9 |
| 20260901002824 | 89 | 289 | 1.0 | 2.0 | 0.00 | 0.24 | 0.24 | 40 | 1016.3 |
| 20260901002315 | 89 | 273 | 1.0 | 3.0 | 0.00 | 0.24 | 0.24 | 40 | 1016.3 |
| 20260901001822 | 89 | 313 | 2.0 | 3.0 | 0.00 | 0.24 | 0.24 | 40 | 1016.3 |
| 20260901001529 | 88 | 296 | 1.0 | 3.0 | 0.00 | 0.24 | 0.24 | 44 | 1012.8 |
| 20260901001313 | 89 | 340 | 1.0 | 2.0 | 0.00 | 0.24 | 0.24 | 40 | 1016.4 |
| 20260901000819 | 89 | 24 | 1.0 | 3.0 | 0.00 | 0.24 | 0.24 | 41 | 1016.5 |
| 20260901000330 | 89 | 220 | 1.0 | 3.0 | 0.00 | 0.24 | 0.24 | 42 | 1016.5 |
| 20260901000013 | 88 | 38 | 0.0 | 3.0 | 0.00 | 0.24 | 0.24 | 44 | 1013.0 |
| 20260831235815 | 89 | 74 | 1.0 | 3.0 | 0.00 | 0.24 | 0.24 | 41 | 1016.4 |
| 20260831235326 | 89 | 338 | 1.0 | 3.0 | 0.00 | 0.24 | 0.24 | 41 | 1016.6 |
| 20260831234815 | 89 | 276 | 1.0 | 3.0 | 0.00 | 0.24 | 0.24 | 42 | 1016.7 |
| 20260831234513 | 88 | 87 | 0.0 | 4.0 | 0.00 | 0.24 | 0.24 | 45 | 1013.2 |
| 20260831234346 | 89 | 111 | 1.0 | 4.0 | 0.00 | 0.24 | 0.24 | 41 | 1016.7 |
| 20260831233851 | 89 | 144 | 1.0 | 4.0 | 0.00 | 0.24 | 0.24 | 42 | 1016.5 |
| 20260831233321 | 89 | 105 | 0.0 | 3.0 | 0.00 | 0.24 | 0.24 | 41 | 1016.5 |
| 20260831233019 | 88 | 76 | 2.0 | 3.0 | 0.00 | 0.24 | 0.24 | 44 | 1013.1 |
| 20260831232827 | 89 | 87 | 1.0 | 3.0 | 0.00 | 0.24 | 0.24 | 41 | 1016.6 |
| 20260831232316 | 89 | 92 | 1.0 | 7.0 | 0.00 | 0.24 | 0.24 | 41 | 1016.5 |
| 20260831231822 | 89 | 84 | 2.0 | 5.0 | 0.00 | 0.24 | 0.24 | 43 | 1016.5 |
| 20260831231527 | 88 | 30 | 2.0 | 8.0 | 0.00 | 0.24 | 0.24 | 45 | 1013.2 |
| 20260831231313 | 88 | 175 | 1.0 | 8.0 | 0.00 | 0.24 | 0.24 | 42 | 1016.7 |
| 20260831230819 | 88 | 76 | 4.0 | 8.0 | 0.00 | 0.24 | 0.24 | 42 | 1016.8 |
| 20260831230351 | 89 | 105 | 1.0 | 5.0 | 0.00 | 0.24 | 0.24 | 44 | 1016.8 |
| 20260831230004 | 89 | 143 | 2.0 | 6.0 | 0.00 | 0.24 | 0.24 | 48 | 1013.5 |
| 20260831225816 | 89 | 120 | 2.0 | 6.0 | 0.00 | 0.24 | 0.24 | 45 | 1016.9 |
| 20260831225328 | 89 | 86 | 1.0 | 5.0 | 0.00 | 0.24 | 0.24 | 45 | 1017.0 |
| 20260831224839 | 89 | 135 | 2.0 | 5.0 | 0.00 | 0.24 | 0.24 | 44 | 1017.2 |
| 20260831224510 | 89 | 97 | 1.0 | 6.0 | 0.00 | 0.24 | 0.24 | 47 | 1013.8 |
| 20260831224327 | 90 | 159 | 2.0 | 6.0 | 0.00 | 0.24 | 0.24 | 43 | 1017.2 |
| 20260831223814 | 89 | 144 | 1.0 | 6.0 | 0.00 | 0.24 | 0.24 | 45 | 1017.2 |
| 20260831223343 | 89 | 123 | 1.0 | 8.0 | 0.00 | 0.24 | 0.24 | 46 | 1017.2 |
| 20260831223018 | 88 | 123 | 5.0 | 8.0 | 0.00 | 0.24 | 0.24 | 48 | 1013.8 |
| 20260831222850 | 89 | 103 | 2.0 | 8.0 | 0.00 | 0.24 | 0.24 | 44 | 1017.3 |
| 20260831222319 | 89 | 105 | 1.0 | 7.0 | 0.00 | 0.24 | 0.24 | 46 | 1017.5 |
| 20260831221847 | 89 | 126 | 1.0 | 7.0 | 0.00 | 0.24 | 0.24 | 46 | 1017.7 |
| 20260831221532 | 87 | 94 | 2.0 | 7.0 | 0.00 | 0.24 | 0.24 | 50 | 1014.3 |
| 20260831221317 | 88 | 220 | 1.0 | 7.0 | 0.00 | 0.24 | 0.24 | 46 | 1017.9 |
| 20260831220824 | 88 | 131 | 2.0 | 7.0 | 0.00 | 0.24 | 0.24 | 45 | 1018.0 |
| 20260831220334 | 88 | 152 | 1.0 | 7.0 | 0.00 | 0.24 | 0.24 | 45 | 1018.1 |
| 20260831220033 | 88 | 143 | 2.0 | 8.0 | 0.00 | 0.24 | 0.24 | 49 | 1014.9 |
| 20260831215819 | 88 | 71 | 2.0 | 8.0 | 0.00 | 0.24 | 0.24 | 46 | 1018.3 |
| 20260831215350 | 88 | 116 | 1.0 | 8.0 | 0.00 | 0.24 | 0.24 | 46 | 1018.6 |
| 20260831214816 | 88 | 109 | 2.0 | 9.0 | 0.00 | 0.24 | 0.24 | 46 | 1018.6 |
| 20260831214527 | 87 | 101 | 4.0 | 11.0 | 0.00 | 0.24 | 0.24 | 51 | 1015.2 |
| 20260831214328 | 87 | 63 | 4.0 | 11.0 | 0.00 | 0.24 | 0.24 | 48 | 1018.7 |
| 20260831213814 | 87 | 98 | 5.0 | 10.0 | 0.00 | 0.24 | 0.24 | 50 | 1018.8 |
| 20260831213328 | 87 | 88 | 5.0 | 10.0 | 0.00 | 0.24 | 0.24 | 50 | 1018.9 |
| 20260831213014 | 87 | 91 | 3.0 | 10.0 | 0.00 | 0.24 | 0.24 | 54 | 1015.6 |
| 20260831212836 | 87 | 99 | 2.0 | 9.0 | 0.00 | 0.24 | 0.24 | 49 | 1019.0 |
| 20260831212326 | 86 | 149 | 2.0 | 9.0 | 0.00 | 0.24 | 0.24 | 50 | 1019.1 |
| 20260831211814 | 86 | 102 | 2.0 | 9.0 | 0.00 | 0.24 | 0.24 | 50 | 1019.3 |
| 20260831211524 | 85 | 153 | 1.0 | 9.0 | 0.00 | 0.24 | 0.24 | 54 | 1015.9 |
| 20260831211325 | 86 | 106 | 2.0 | 9.0 | 0.00 | 0.24 | 0.24 | 52 | 1019.3 |
| 20260831210854 | 86 | 115 | 2.0 | 10.0 | 0.00 | 0.24 | 0.24 | 51 | 1019.5 |
| 20260831210324 | 86 | 116 | 2.0 | 10.0 | 0.00 | 0.24 | 0.24 | 50 | 1019.5 |
| 20260831210029 | 85 | 90 | 1.0 | 10.0 | 0.00 | 0.24 | 0.24 | 56 | 1016.1 |
| 20260831205851 | 86 | 91 | 4.0 | 10.0 | 0.00 | 0.24 | 0.24 | 52 | 1019.6 |
| 20260831205322 | 86 | 130 | 2.0 | 5.0 | 0.00 | 0.24 | 0.24 | 55 | 1019.7 |
| 20260831204830 | 85 | 93 | 2.0 | 7.0 | 0.00 | 0.24 | 0.24 | 54 | 1019.8 |
| 20260831204528 | 84 | 134 | 2.0 | 7.0 | 0.00 | 0.24 | 0.24 | 58 | 1016.4 |
| 20260831204322 | 85 | 65 | 2.0 | 7.0 | 0.00 | 0.24 | 0.24 | 56 | 1019.9 |
| 20260831203814 | 84 | 188 | 2.0 | 8.0 | 0.00 | 0.24 | 0.24 | 56 | 1019.9 |
| 20260831203325 | 84 | 98 | 3.0 | 8.0 | 0.00 | 0.24 | 0.24 | 56 | 1019.9 |
| 20260831203011 | 83 | 126 | 2.0 | 9.0 | 0.00 | 0.24 | 0.24 | 61 | 1016.6 |
| 20260831202813 | 84 | 115 | 2.0 | 9.0 | 0.00 | 0.24 | 0.24 | 58 | 1020.0 |
| 20260831202324 | 83 | 117 | 3.0 | 13.0 | 0.00 | 0.24 | 0.24 | 60 | 1019.9 |
| 20260831201832 | 83 | 80 | 5.0 | 13.0 | 0.00 | 0.24 | 0.24 | 60 | 1019.9 |
| 20260831201528 | 82 | 94 | 6.0 | 11.0 | 0.00 | 0.24 | 0.24 | 64 | 1016.5 |
| 20260831201323 | 83 | 47 | 4.0 | 11.0 | 0.00 | 0.24 | 0.24 | 61 | 1020.0 |
| 20260831200831 | 82 | 87 | 1.0 | 9.0 | 0.00 | 0.24 | 0.24 | 63 | 1020.1 |
| 20260831200323 | 81 | 96 | 2.0 | 9.0 | 0.00 | 0.24 | 0.24 | 64 | 1020.0 |
| 20260831200038 | 81 | 85 | 2.0 | 7.0 | 0.00 | 0.24 | 0.24 | 67 | 1016.6 |
| 20260831195815 | 81 | 117 | 2.0 | 6.0 | 0.00 | 0.24 | 0.24 | 64 | 1020.1 |
| 20260831195347 | 80 | 139 | 3.0 | 7.0 | 0.00 | 0.24 | 0.24 | 65 | 1020.1 |
| 20260831194814 | 78 | 103 | 2.0 | 7.0 | 0.00 | 0.24 | 0.24 | 67 | 1020.3 |
| 20260831194529 | 78 | 159 | 2.0 | 8.0 | 0.00 | 0.24 | 0.24 | 71 | 1016.9 |
| 20260831194346 | 78 | 124 | 2.0 | 8.0 | 0.00 | 0.24 | 0.24 | 67 | 1020.3 |
| 20260831193814 | 78 | 168 | 2.0 | 8.0 | 0.00 | 0.24 | 0.24 | 66 | 1020.3 |
| 20260831193325 | 78 | 107 | 3.0 | 6.0 | 0.00 | 0.24 | 0.24 | 67 | 1020.3 |
| 20260831193034 | 78 | 130 | 1.0 | 4.0 | 0.00 | 0.24 | 0.24 | 71 | 1016.8 |
| 20260831192814 | 78 | 137 | 1.0 | 4.0 | 0.00 | 0.24 | 0.24 | 68 | 1020.2 |
| 20260831192324 | 78 | 109 | 1.0 | 6.0 | 0.00 | 0.24 | 0.24 | 69 | 1020.2 |
| 20260831191813 | 78 | 124 | 2.0 | 7.0 | 0.00 | 0.24 | 0.24 | 69 | 1020.3 |
| 20260831191515 | 77 | 103 | 2.0 | 7.0 | 0.00 | 0.24 | 0.24 | 73 | 1016.8 |
| 20260831191325 | 78 | 124 | 2.0 | 7.0 | 0.00 | 0.24 | 0.24 | 68 | 1020.3 |
| 20260831190833 | 78 | 106 | 2.0 | 6.0 | 0.00 | 0.24 | 0.24 | 68 | 1020.3 |
| 20260831190330 | 78 | 143 | 3.0 | 7.0 | 0.00 | 0.24 | 0.24 | 71 | 1020.2 |
| 20260831190041 | 77 | 85 | 2.0 | 5.0 | 0.00 | 0.24 | 0.24 | 76 | 1016.9 |
| 20260831185817 | 78 | 127 | 2.0 | 5.0 | 0.00 | 0.24 | 0.24 | 73 | 1020.5 |
| 20260831185327 | 78 | 182 | 1.0 | 5.0 | 0.00 | 0.24 | 0.24 | 73 | 1020.6 |
| 20260831184815 | 78 | 142 | 3.0 | 6.0 | 0.00 | 0.24 | 0.24 | 73 | 1020.4 |
| 20260831184511 | 77 | 114 | 2.0 | 4.0 | 0.00 | 0.24 | 0.24 | 77 | 1016.8 |
| 20260831184327 | 78 | 128 | 2.0 | 4.0 | 0.00 | 0.24 | 0.24 | 73 | 1020.3 |
| 20260831183815 | 78 | 135 | 2.0 | 4.0 | 0.00 | 0.24 | 0.24 | 72 | 1020.3 |
| 20260831183326 | 78 | 129 | 2.0 | 4.0 | 0.00 | 0.24 | 0.24 | 71 | 1020.3 |
| 20260831183007 | 77 | 140 | 2.0 | 6.0 | 0.00 | 0.24 | 0.24 | 74 | 1016.9 |
| 20260831182814 | 78 | 130 | 2.0 | 6.0 | 0.00 | 0.24 | 0.24 | 70 | 1020.3 |
| 20260831182346 | 78 | 151 | 1.0 | 6.0 | 0.00 | 0.24 | 0.24 | 69 | 1020.4 |
| 20260831181816 | 78 | 115 | 2.0 | 4.0 | 0.00 | 0.24 | 0.24 | 69 | 1020.5 |
| 20260831181507 | 77 | 140 | 1.0 | 4.0 | 0.00 | 0.24 | 0.24 | 73 | 1017.1 |
| 20260831181327 | 78 | 149 | 2.0 | 4.0 | 0.00 | 0.24 | 0.24 | 70 | 1020.6 |
| 20260831180815 | 78 | 103 | 2.0 | 4.0 | 0.00 | 0.24 | 0.24 | 71 | 1020.7 |
| 20260831180325 | 78 | 155 | 2.0 | 4.0 | 0.00 | 0.24 | 0.24 | 75 | 1020.6 |
| 20260831180006 | 77 | 138 | 1.0 | 4.0 | 0.00 | 0.24 | 0.24 | 78 | 1017.2 |
| 20260831175832 | 78 | 141 | 1.0 | 4.0 | 0.00 | 0.24 | 0.24 | 75 | 1020.5 |
| 20260831175323 | 78 | 123 | 1.0 | 2.0 | 0.00 | 0.24 | 0.24 | 77 | 1020.8 |
| 20260831174829 | 77 | 105 | 1.0 | 2.0 | 0.00 | 0.24 | 0.24 | 77 | 1020.9 |
| 20260831174509 | 76 | 116 | 0.0 | 4.0 | 0.00 | 0.24 | 0.24 | 81 | 1017.5 |
| 20260831174320 | 77 | 112 | 1.0 | 5.0 | 0.00 | 0.24 | 0.24 | 78 | 1021.1 |
| 20260831173828 | 77 | 99 | 2.0 | 6.0 | 0.00 | 0.24 | 0.24 | 77 | 1021.1 |
| 20260831173320 | 77 | 88 | 3.0 | 6.0 | 0.01 | 0.24 | 0.24 | 77 | 1021.2 |
| 20260831173004 | 76 | 119 | 2.0 | 8.0 | 0.02 | 0.24 | 0.24 | 81 | 1017.7 |
| 20260831172828 | 76 | 98 | 1.0 | 8.0 | 0.02 | 0.24 | 0.24 | 79 | 1021.1 |
| 20260831172323 | 76 | 78 | 2.0 | 8.0 | 0.03 | 0.24 | 0.24 | 79 | 1021.1 |
| 20260831171830 | 76 | 95 | 3.0 | 10.0 | 0.04 | 0.24 | 0.24 | 80 | 1021.0 |
| 20260831171509 | 76 | 123 | 2.0 | 10.0 | 0.04 | 0.24 | 0.24 | 83 | 1017.4 |
| 20260831171321 | 76 | 84 | 3.0 | 10.0 | 0.05 | 0.24 | 0.24 | 80 | 1020.8 |
| 20260831170829 | 76 | 83 | 2.0 | 8.0 | 0.06 | 0.24 | 0.24 | 80 | 1020.7 |
| 20260831170341 | 76 | 90 | 4.0 | 8.0 | 0.07 | 0.24 | 0.24 | 80 | 1020.8 |
| 20260831170007 | 75 | 95 | 2.0 | 7.0 | 0.08 | 0.24 | 0.24 | 85 | 1017.3 |
| 20260831165827 | 76 | 86 | 2.0 | 6.0 | 0.08 | 0.24 | 0.24 | 81 | 1020.7 |
| 20260831165315 | 76 | 91 | 1.0 | 3.0 | 0.10 | 0.24 | 0.24 | 82 | 1020.8 |
| 20260831164822 | 75 | 74 | 1.0 | 2.0 | 0.10 | 0.24 | 0.24 | 82 | 1020.8 |
| 20260831164506 | 75 | 28 | 0.0 | 4.0 | 0.11 | 0.24 | 0.24 | 85 | 1017.3 |
| 20260831164313 | 75 | 344 | 0.0 | 4.0 | 0.12 | 0.24 | 0.24 | 82 | 1020.7 |
| 20260831163824 | 75 | 90 | 1.0 | 4.0 | 0.13 | 0.24 | 0.24 | 83 | 1020.6 |
| 20260831163315 | 75 | 83 | 1.0 | 3.0 | 0.12 | 0.23 | 0.23 | 82 | 1020.6 |
| 20260831163026 | 74 | 72 | 0.0 | 5.0 | 0.11 | 0.22 | 0.22 | 87 | 1017.1 |
| 20260831162823 | 75 | 348 | 0.0 | 5.0 | 0.11 | 0.22 | 0.22 | 82 | 1020.6 |
| 20260831162313 | 75 | 83 | 1.0 | 9.0 | 0.11 | 0.21 | 0.21 | 82 | 1020.5 |
| 20260831161839 | 75 | 90 | 3.0 | 9.0 | 0.10 | 0.20 | 0.20 | 82 | 1020.2 |
| 20260831161512 | 74 | 36 | 5.0 | 9.0 | 0.10 | 0.20 | 0.20 | 85 | 1016.9 |
| 20260831161329 | 75 | 63 | 4.0 | 8.0 | 0.10 | 0.19 | 0.19 | 82 | 1020.3 |
| 20260831160817 | 75 | 80 | 4.0 | 7.0 | 0.11 | 0.18 | 0.18 | 82 | 1020.5 |
| 20260831160327 | 75 | 90 | 1.0 | 4.0 | 0.13 | 0.17 | 0.17 | 83 | 1020.6 |
| 20260831160008 | 75 | 62 | 0.0 | 3.0 | 0.13 | 0.16 | 0.16 | 86 | 1017.3 |
| 20260831155815 | 75 | 43 | 0.0 | 3.0 | 0.14 | 0.15 | 0.15 | 83 | 1020.7 |
| 20260831155326 | 75 | 24 | 1.0 | 3.0 | 0.14 | 0.14 | 0.14 | 83 | 1020.8 |
| 20260831154817 | 75 | 24 | 1.0 | 4.0 | 0.13 | 0.13 | 0.13 | 83 | 1020.7 |
| 20260831154522 | 75 | 10 | 1.0 | 4.0 | 0.13 | 0.13 | 0.13 | 86 | 1017.3 |
| 20260831154347 | 75 | 30 | 1.0 | 4.0 | 0.12 | 0.12 | 0.12 | 82 | 1020.7 |
| 20260831153831 | 75 | 36 | 0.0 | 1.0 | 0.11 | 0.11 | 0.11 | 82 | 1020.7 |
| 20260831153342 | 75 | 66 | 0.0 | 2.0 | 0.11 | 0.11 | 0.11 | 82 | 1020.6 |
| 20260831153009 | 74 | 28 | 1.0 | 2.0 | 0.11 | 0.11 | 0.11 | 85 | 1017.2 |
| 20260831152830 | 75 | 40 | 1.0 | 3.0 | 0.10 | 0.10 | 0.10 | 81 | 1020.7 |
| 20260831152321 | 75 | 342 | 0.0 | 3.0 | 0.10 | 0.10 | 0.10 | 79 | 1020.5 |
| 20260831151828 | 75 | 75 | 1.0 | 4.0 | 0.10 | 0.10 | 0.10 | 79 | 1020.4 |
| 20260831151520 | 74 | 74 | 1.0 | 4.0 | 0.10 | 0.10 | 0.10 | 84 | 1017.1 |
| 20260831151319 | 75 | 86 | 0.0 | 7.0 | 0.09 | 0.09 | 0.09 | 81 | 1020.5 |
| 20260831150826 | 75 | 86 | 1.0 | 7.0 | 0.07 | 0.07 | 0.07 | 78 | 1020.6 |
| 20260831150337 | 76 | 136 | 1.0 | 2.0 | 0.04 | 0.04 | 0.04 | 77 | 1020.4 |
| 20260831150009 | 76 | 122 | 1.0 | 8.0 | 0.03 | 0.03 | 0.03 | 78 | 1016.7 |
| 20260831145823 | 77 | 96 | 1.0 | 8.0 | 0.01 | 0.01 | 0.01 | 74 | 1020.1 |
| 20260831145318 | 78 | 136 | 2.0 | 8.0 | 0.00 | 0.00 | 0.00 | 71 | 1019.9 |
| 20260831144826 | 78 | 125 | 3.0 | 8.0 | 0.00 | 0.00 | 0.00 | 69 | 1019.8 |
| 20260831144520 | 77 | 111 | 3.0 | 6.0 | 0.00 | 0.00 | 0.00 | 72 | 1016.5 |
| 20260831144317 | 78 | 115 | 2.0 | 4.0 | 0.00 | 0.00 | 0.00 | 69 | 1020.0 |
| 20260831143825 | 78 | 119 | 2.0 | 5.0 | 0.00 | 0.00 | 0.00 | 70 | 1020.4 |
| 20260831143352 | 78 | 150 | 2.0 | 5.0 | 0.00 | 0.00 | 0.00 | 69 | 1020.4 |
| 20260831143021 | 78 | 123 | 1.0 | 6.0 | 0.00 | 0.00 | 0.00 | 72 | 1016.7 |
| 20260831142817 | 78 | 136 | 2.0 | 5.0 | 0.00 | 0.00 | 0.00 | 69 | 1020.1 |
| 20260831142329 | 78 | 134 | 2.0 | 3.0 | 0.00 | 0.00 | 0.00 | 68 | 1019.9 |
| 20260831141816 | 78 | 154 | 1.0 | 6.0 | 0.00 | 0.00 | 0.00 | 68 | 1019.6 |
| 20260831141512 | 78 | 97 | 1.0 | 6.0 | 0.00 | 0.00 | 0.00 | 71 | 1016.0 |
| 20260831141327 | 78 | 119 | 2.0 | 6.0 | 0.00 | 0.00 | 0.00 | 68 | 1019.4 |
| 20260831140835 | 78 | 156 | 2.0 | 8.0 | 0.00 | 0.00 | 0.00 | 68 | 1019.2 |
| 20260831140329 | 78 | 111 | 2.0 | 10.0 | 0.00 | 0.00 | 0.00 | 68 | 1019.1 |
| 20260831140030 | 77 | 136 | 5.0 | 10.0 | 0.00 | 0.00 | 0.00 | 72 | 1015.5 |
| 20260831135815 | 78 | 84 | 3.0 | 9.0 | 0.00 | 0.00 | 0.00 | 68 | 1018.9 |
| 20260831135326 | 78 | 103 | 4.0 | 11.0 | 0.00 | 0.00 | 0.00 | 68 | 1018.7 |
| 20260831134814 | 78 | 128 | 3.0 | 14.0 | 0.00 | 0.00 | 0.00 | 68 | 1018.6 |
| 20260831134513 | 78 | 72 | 4.0 | 14.0 | 0.00 | 0.00 | 0.00 | 71 | 1015.1 |
| 20260831134326 | 78 | 112 | 5.0 | 14.0 | 0.00 | 0.00 | 0.00 | 67 | 1018.5 |
| 20260831133833 | 79 | 119 | 3.0 | 13.0 | 0.00 | 0.00 | 0.00 | 67 | 1018.5 |
| 20260831133323 | 79 | 107 | 4.0 | 11.0 | 0.00 | 0.00 | 0.00 | 67 | 1018.5 |
| 20260831133011 | 79 | 80 | 3.0 | 11.0 | 0.00 | 0.00 | 0.00 | 69 | 1014.9 |
| 20260831132829 | 79 | 166 | 4.0 | 11.0 | 0.00 | 0.00 | 0.00 | 66 | 1018.3 |
| 20260831132340 | 80 | 130 | 2.0 | 11.0 | 0.00 | 0.00 | 0.00 | 64 | 1018.1 |
| 20260831131825 | 80 | 96 | 3.0 | 10.0 | 0.00 | 0.00 | 0.00 | 63 | 1018.1 |
| 20260831131528 | 80 | 95 | 4.0 | 10.0 | 0.00 | 0.00 | 0.00 | 66 | 1014.6 |
| 20260831131315 | 80 | 132 | 3.0 | 10.0 | 0.00 | 0.00 | 0.00 | 62 | 1018.0 |
| 20260831130842 | 80 | 78 | 2.0 | 10.0 | 0.00 | 0.00 | 0.00 | 62 | 1017.8 |
| 20260831130317 | 81 | 115 | 2.0 | 10.0 | 0.00 | 0.00 | 0.00 | 60 | 1017.7 |
| 20260831130029 | 81 | 113 | 4.0 | 10.0 | 0.00 | 0.00 | 0.00 | 63 | 1014.3 |
| 20260831125823 | 81 | 93 | 2.0 | 4.0 | 0.00 | 0.00 | 0.00 | 59 | 1017.7 |
| 20260831125314 | 81 | 81 | 1.0 | 3.0 | 0.00 | 0.00 | 0.00 | 59 | 1017.8 |
| 20260831124822 | 81 | 80 | 2.0 | 3.0 | 0.00 | 0.00 | 0.00 | 60 | 1017.7 |
| 20260831124514 | 80 | 178 | 0.0 | 2.0 | 0.00 | 0.00 | 0.00 | 64 | 1014.1 |
| 20260831124314 | 81 | 194 | 0.0 | 2.0 | 0.00 | 0.00 | 0.00 | 60 | 1017.5 |
| 20260831123821 | 81 | 201 | 0.0 | 4.0 | 0.00 | 0.00 | 0.00 | 60 | 1017.5 |
| 20260831123333 | 81 | 216 | 1.0 | 4.0 | 0.00 | 0.00 | 0.00 | 59 | 1017.3 |
| 20260831123019 | 81 | 251 | 1.0 | 4.0 | 0.00 | 0.00 | 0.00 | 61 | 1013.7 |
| 20260831122840 | 81 | 221 | 1.0 | 4.0 | 0.00 | 0.00 | 0.00 | 58 | 1017.1 |
| 20260831122329 | 81 | 237 | 1.0 | 3.0 | 0.00 | 0.00 | 0.00 | 58 | 1017.1 |
| 20260831121820 | 81 | 241 | 1.0 | 2.0 | 0.00 | 0.00 | 0.00 | 58 | 1017.0 |
| 20260831121516 | 80 | 267 | 1.0 | 3.0 | 0.00 | 0.00 | 0.00 | 61 | 1013.5 |
| 20260831121350 | 81 | 211 | 1.0 | 3.0 | 0.00 | 0.00 | 0.00 | 58 | 1016.9 |
| 20260831120817 | 81 | 197 | 0.0 | 3.0 | 0.00 | 0.00 | 0.00 | 59 | 1016.8 |
| 20260831120328 | 81 | 179 | 0.0 | 2.0 | 0.00 | 0.00 | 0.00 | 59 | 1016.7 |
| 20260831120021 | 80 | 175 | 0.0 | 2.0 | 0.00 | 0.00 | 0.00 | 63 | 1013.1 |
| 20260831115815 | 80 | 207 | 0.0 | 2.0 | 0.00 | 0.00 | 0.00 | 60 | 1016.5 |
| 20260831115327 | 81 | 259 | 0.0 | 2.0 | 0.00 | 0.00 | 0.00 | 60 | 1016.3 |
| 20260831114814 | 80 | 265 | 0.0 | 2.0 | 0.00 | 0.00 | 0.00 | 61 | 1016.4 |
| 20260831114517 | 80 | 265 | 0.0 | 2.0 | 0.00 | 0.00 | 0.00 | 65 | 1012.9 |
| 20260831114325 | 80 | 265 | 0.0 | 2.0 | 0.00 | 0.00 | 0.00 | 61 | 1016.4 |
| 20260831113833 | 80 | 265 | 1.0 | 2.0 | 0.00 | 0.00 | 0.00 | 61 | 1016.4 |
| 20260831113324 | 80 | 182 | 0.0 | 2.0 | 0.00 | 0.00 | 0.00 | 62 | 1016.3 |
| 20260831113017 | 79 | 182 | 1.0 | 2.0 | 0.00 | 0.00 | 0.00 | 66 | 1012.7 |
| 20260831112815 | 80 | 181 | 1.0 | 2.0 | 0.00 | 0.00 | 0.00 | 63 | 1016.1 |
| 20260831112327 | 80 | 194 | 0.0 | 3.0 | 0.00 | 0.00 | 0.00 | 62 | 1016.0 |
| 20260831111814 | 80 | 194 | 2.0 | 3.0 | 0.00 | 0.00 | 0.00 | 62 | 1015.9 |
| 20260831111520 | 79 | 135 | 0.0 | 2.0 | 0.00 | 0.00 | 0.00 | 66 | 1012.4 |
| 20260831111325 | 80 | 135 | 1.0 | 2.0 | 0.00 | 0.00 | 0.00 | 62 | 1015.8 |
| 20260831110832 | 80 | 133 | 0.0 | 2.0 | 0.00 | 0.00 | 0.00 | 62 | 1015.8 |
| 20260831110325 | 80 | 124 | 0.0 | 2.0 | 0.00 | 0.00 | 0.00 | 62 | 1015.9 |
| 20260831110021 | 80 | 112 | 0.0 | 2.0 | 0.00 | 0.00 | 0.00 | 66 | 1012.5 |
| 20260831105831 | 80 | 112 | 0.0 | 2.0 | 0.00 | 0.00 | 0.00 | 63 | 1015.9 |
| 20260831105320 | 80 | 99 | 1.0 | 4.0 | 0.00 | 0.00 | 0.00 | 62 | 1015.8 |
| 20260831104828 | 80 | 92 | 2.0 | 7.0 | 0.00 | 0.00 | 0.00 | 62 | 1015.9 |
| 20260831104521 | 80 | 99 | 2.0 | 6.0 | 0.00 | 0.00 | 0.00 | 64 | 1012.4 |
| 20260831104319 | 81 | 115 | 3.0 | 6.0 | 0.00 | 0.00 | 0.00 | 60 | 1015.9 |
| 20260831103847 | 81 | 98 | 2.0 | 8.0 | 0.00 | 0.00 | 0.00 | 57 | 1015.6 |
| 20260831103321 | 82 | 94 | 2.0 | 7.0 | 0.00 | 0.00 | 0.00 | 54 | 1015.3 |
| 20260831103021 | 81 | 91 | 1.0 | 5.0 | 0.00 | 0.00 | 0.00 | 57 | 1011.7 |
| 20260831102829 | 82 | 99 | 1.0 | 5.0 | 0.00 | 0.00 | 0.00 | 54 | 1015.1 |
| 20260831102320 | 82 | 116 | 2.0 | 4.0 | 0.00 | 0.00 | 0.00 | 53 | 1014.8 |
| 20260831101827 | 82 | 57 | 2.0 | 9.0 | 0.00 | 0.00 | 0.00 | 53 | 1014.6 |
| 20260831101518 | 81 | 59 | 2.0 | 9.0 | 0.00 | 0.00 | 0.00 | 56 | 1011.2 |
| 20260831101319 | 82 | 93 | 2.0 | 9.0 | 0.00 | 0.00 | 0.00 | 53 | 1014.7 |
| 20260831100845 | 82 | 52 | 2.0 | 9.0 | 0.00 | 0.00 | 0.00 | 53 | 1014.7 |
| 20260831100314 | 82 | 31 | 3.0 | 9.0 | 0.00 | 0.00 | 0.00 | 54 | 1014.9 |
| 20260831100019 | 82 | 77 | 4.0 | 9.0 | 0.00 | 0.00 | 0.00 | 60 | 1011.6 |
| 20260831095822 | 82 | 78 | 5.0 | 9.0 | 0.00 | 0.00 | 0.00 | 56 | 1015.1 |
| 20260831095314 | 83 | 91 | 1.0 | 8.0 | 0.00 | 0.00 | 0.00 | 55 | 1015.2 |
| 20260831094824 | 83 | 132 | 2.0 | 8.0 | 0.00 | 0.00 | 0.00 | 53 | 1015.2 |
| 20260831094520 | 83 | 323 | 0.0 | 2.0 | 0.00 | 0.00 | 0.00 | 55 | 1011.7 |
| 20260831094315 | 83 | 323 | 0.0 | 2.0 | 0.00 | 0.00 | 0.00 | 52 | 1015.3 |
| 20260831093823 | 83 | 309 | 0.0 | 2.0 | 0.00 | 0.00 | 0.00 | 52 | 1015.4 |
| 20260831093335 | 83 | 309 | 1.0 | 2.0 | 0.00 | 0.00 | 0.00 | 51 | 1015.3 |
| 20260831093024 | 83 | 63 | 0.0 | 3.0 | 0.00 | 0.00 | 0.00 | 54 | 1011.9 |
| 20260831092821 | 83 | 65 | 1.0 | 5.0 | 0.00 | 0.00 | 0.00 | 51 | 1015.4 |
| 20260831092332 | 83 | 35 | 1.0 | 5.0 | 0.00 | 0.00 | 0.00 | 50 | 1015.3 |
| 20260831091818 | 83 | 355 | 2.0 | 4.0 | 0.00 | 0.00 | 0.00 | 51 | 1015.4 |
| 20260831091523 | 83 | 17 | 1.0 | 6.0 | 0.00 | 0.00 | 0.00 | 55 | 1012.0 |
| 20260831091347 | 83 | 75 | 2.0 | 6.0 | 0.00 | 0.00 | 0.00 | 52 | 1015.5 |
| 20260831090813 | 83 | 65 | 1.0 | 6.0 | 0.00 | 0.00 | 0.00 | 52 | 1015.4 |
| 20260831090325 | 83 | 76 | 3.0 | 9.0 | 0.00 | 0.00 | 0.00 | 52 | 1015.4 |
| 20260831090023 | 82 | 77 | 2.0 | 9.0 | 0.00 | 0.00 | 0.00 | 55 | 1012.1 |
| 20260831085816 | 83 | 90 | 2.0 | 9.0 | 0.00 | 0.00 | 0.00 | 51 | 1015.6 |
| 20260831085327 | 83 | 71 | 2.0 | 7.0 | 0.00 | 0.00 | 0.00 | 51 | 1015.8 |
| 20260831084813 | 83 | 69 | 2.0 | 7.0 | 0.00 | 0.00 | 0.00 | 52 | 1015.9 |
| 20260831084523 | 82 | 99 | 1.0 | 12.0 | 0.00 | 0.00 | 0.00 | 56 | 1012.5 |
| 20260831084323 | 83 | 29 | 1.0 | 12.0 | 0.00 | 0.00 | 0.00 | 52 | 1016.1 |
| 20260831083830 | 83 | 82 | 2.0 | 12.0 | 0.00 | 0.00 | 0.00 | 52 | 1016.1 |
| 20260831083342 | 83 | 17 | 2.0 | 10.0 | 0.00 | 0.00 | 0.00 | 52 | 1016.1 |
| 20260831083023 | 83 | 17 | 2.0 | 7.0 | 0.00 | 0.00 | 0.00 | 55 | 1012.8 |
| 20260831082827 | 83 | 59 | 1.0 | 7.0 | 0.00 | 0.00 | 0.00 | 52 | 1016.2 |
| 20260831082317 | 83 | 64 | 2.0 | 8.0 | 0.00 | 0.00 | 0.00 | 53 | 1016.3 |
| 20260831081825 | 83 | 50 | 3.0 | 10.0 | 0.00 | 0.00 | 0.00 | 52 | 1016.3 |
| 20260831081523 | 83 | 101 | 3.0 | 10.0 | 0.00 | 0.00 | 0.00 | 55 | 1012.8 |
| 20260831081336 | 83 | 134 | 4.0 | 10.0 | 0.00 | 0.00 | 0.00 | 51 | 1016.2 |
| 20260831080821 | 84 | 84 | 1.0 | 16.0 | 0.00 | 0.00 | 0.00 | 51 | 1016.2 |
| 20260831080317 | 84 | 360 | 6.0 | 16.0 | 0.00 | 0.00 | 0.00 | 51 | 1016.1 |
| 20260831080033 | 83 | 336 | 8.0 | 16.0 | 0.00 | 0.00 | 0.00 | 55 | 1012.8 |
| 20260831075844 | 84 | 351 | 6.0 | 13.0 | 0.00 | 0.00 | 0.00 | 52 | 1016.3 |
| 20260831075333 | 83 | 324 | 2.0 | 10.0 | 0.00 | 0.00 | 0.00 | 53 | 1016.6 |
| 20260831074840 | 83 | 246 | 1.0 | 15.0 | 0.00 | 0.00 | 0.00 | 54 | 1016.5 |
| 20260831074524 | 83 | 9 | 3.0 | 17.0 | 0.00 | 0.00 | 0.00 | 58 | 1012.8 |
| 20260831074329 | 83 | 22 | 2.0 | 17.0 | 0.00 | 0.00 | 0.00 | 55 | 1016.2 |
| 20260831073817 | 83 | 348 | 6.0 | 17.0 | 0.00 | 0.00 | 0.00 | 55 | 1015.8 |
| 20260831073327 | 84 | 346 | 4.0 | 15.0 | 0.00 | 0.00 | 0.00 | 55 | 1016.0 |
| 20260831073029 | 83 | 315 | 4.0 | 15.0 | 0.00 | 0.00 | 0.00 | 58 | 1012.1 |
| 20260831072834 | 84 | 89 | 5.0 | 15.0 | 0.00 | 0.00 | 0.00 | 55 | 1015.4 |
| 20260831072325 | 84 | 145 | 5.0 | 13.0 | 0.00 | 0.00 | 0.00 | 55 | 1015.4 |